User: anonymous   Login
Location: Hannover
(52.3723°N, 9.7339°E)
Time: 15:51:13
(UTC+01:00)
Language:

VELOX 1 - Orbit

View from above orbital plane
View from above orbital plane
View from above satellite
View from above satellite

Ground track
Ground track

The orbit data is extracted from the following two-line orbital elements,

1 40057U 14034E   20022.50793459  .00000184  00000-0  33297-4 0  9997
2 40057  98.2576 155.6543 0009729 253.2815 106.7326 14.77786424299934
Epoch (UTC): 22 January 2020 12:11:25
Eccentricity: 0.0009729
inclination: 98.2576°
perigee height: 629 km
apogee height: 643 km
right ascension of ascending node: 155.6543°
argument of perigee: 253.2815°
revolutions per day: 14.77786424
mean anomaly at epoch: 106.7326°
orbit number at epoch: 29993

The dashed part of the orbit path shows where the satellite is in the earth's shadow,  

DLR